Flag Weather past 2 weeks in Ålesund, Norway

Now
46 °F

Clear.


Feels Like: 42 °F
Forecast: 39 / 45 °F
Wind: 8 mph from Southeast

Location: Alesund / Vigra

Current Time: Nov 27, 2014 at 9:26:01 AM

Latest Report: Nov 27, 2014 at 8:50 AM


Visibility: 10 mi

Pressure: 29.98 "Hg

Humidity: 62%

Dew point: 34 °F

Location of ÅlesundLocation

Historic Weather in Ålesund — Graph

°F

Ålesund temperature yesterday

Maximum temperature yesterday: 45 °F (at 6:50 PM)
Minimum temperature yesterday: 39 °F (at 7:50 AM)
Average temperature yesterday: 42 °F

Past Weeks' High & Low Weather Summary

 TemperatureHumidityPressure
High55 °F (Nov 13, 6:20 AM)93% (Nov 14, 7:20 AM)30.45 "Hg (Nov 14, 7:20 AM)
Low34 °F (Nov 17, 12:20 AM)44% (Nov 13, 5:20 AM)29.68 "Hg (Nov 24, 5:50 AM)
Average43 °F77%30.09 "Hg
* Reported Nov 12 8:20 AM — Nov 27 8:20 AM, Ålesund, Weather by CustomWeather, © 2014

Note: Actual official high and low records may vary slightly from our data, if they occured in-between our weather recording intervals... More about our weather records

Advertising

Ålesund weather history for previous 24 hours

 ConditionsComfort  
Time TempWeatherWind HumidityBarometerVisibility
8:20 AM
Nov 27
45 °FClear.7 mph66%29.98 "Hg10 mi
7:50 AM45 °FClear.6 mph66%29.98 "Hg10 mi
7:20 AM41 °FClear.6 mph70%29.98 "Hg10 mi
6:50 AM46 °FClear.8 mph57%29.98 "Hg10 mi
6:20 AM46 °FPassing clouds.7 mph57%29.98 "HgN/A
5:50 AM46 °FClear.10 mph57%29.98 "Hg10 mi
5:20 AM46 °FPassing clouds.13 mph57%29.98 "HgN/A
4:50 AM45 °FMostly cloudy.10 mph61%29.98 "HgN/A
4:20 AM45 °FMostly cloudy.10 mph66%29.98 "HgN/A
3:50 AM45 °FOvercast.6 mph61%30.01 "HgN/A
3:20 AM45 °FPassing clouds.8 mph66%30.01 "HgN/A
2:50 AM45 °FPassing clouds.8 mph61%30.01 "HgN/A
2:20 AM45 °FPassing clouds.7 mph61%30.01 "HgN/A
1:50 AM45 °FPassing clouds.8 mph61%30.01 "HgN/A
1:20 AM45 °FOvercast.9 mph57%30.01 "HgN/A
12:50 AM45 °FOvercast.9 mph61%30.01 "HgN/A
12:20 AM45 °FOvercast.10 mph61%30.01 "HgN/A
11:50 PM
Nov 26
45 °FPartly cloudy.12 mph61%30.04 "HgN/A
11:20 PM45 °FPassing clouds.9 mph61%30.04 "HgN/A
10:50 PM45 °FPassing clouds.10 mph57%30.04 "HgN/A
10:20 PM45 °FPassing clouds.9 mph61%30.04 "HgN/A
9:50 PM45 °FPassing clouds.8 mph61%30.04 "HgN/A
9:20 PM45 °FPassing clouds.13 mph61%30.04 "HgN/A
8:50 PM45 °FPassing clouds.13 mph61%30.07 "HgN/A
8:20 PM45 °FPassing clouds.10 mph61%30.07 "HgN/A
7:50 PM45 °FPartly cloudy.12 mph66%30.07 "HgN/A
7:20 PM45 °FPartly cloudy.12 mph61%30.07 "HgN/A
6:50 PM45 °FPassing clouds.12 mph61%30.07 "HgN/A
6:20 PM43 °FPartly cloudy.13 mph61%30.07 "HgN/A
5:50 PM43 °FPartly cloudy.12 mph61%30.07 "HgN/A
5:20 PM43 °FClear.12 mph61%30.07 "Hg10 mi
4:50 PM43 °FPassing clouds.13 mph61%30.09 "HgN/A
4:20 PM43 °FPassing clouds.9 mph61%30.09 "HgN/A
3:50 PM43 °FPassing clouds.12 mph61%30.09 "HgN/A
3:20 PM43 °FBroken clouds.12 mph61%30.12 "HgN/A
2:50 PM43 °FSunny.12 mph57%30.12 "Hg10 mi
2:20 PM43 °FSunny.10 mph61%30.12 "Hg10 mi
1:50 PM43 °FSunny.13 mph61%30.12 "Hg10 mi
1:20 PM43 °FSunny.12 mph61%30.15 "Hg10 mi
12:50 PM43 °FSunny.12 mph61%30.15 "Hg10 mi
12:20 PM43 °FSunny.10 mph61%30.15 "Hg10 mi
11:50 AM41 °FSunny.12 mph66%30.15 "Hg10 mi
11:20 AM41 °FSunny.14 mph66%30.15 "Hg10 mi
10:50 AM41 °FSunny.13 mph66%30.15 "Hg10 mi
10:20 AM41 °FSunny.12 mph66%30.18 "Hg10 mi
9:50 AM39 °FSunny.13 mph75%30.18 "Hg10 mi
9:20 AM39 °FSunny.12 mph70%30.18 "Hg10 mi
Weather by CustomWeather, © 2014

See weather overviewHow to use our weather pages